Location: Chippewa Lake
(41.0698°N, 81.9010°W)
Time: 22:04:51
(UTC+00:00)

Lacrosse 5 - Pass Details

Date: 09 May 2021
Orbit: 715 x 724 km, 57.0° (Epoch: 15 June)

Event Time Altitude Azimuth Distance (km) Brightness Sun altitude
Exits shadow 09:06:03 - 280° (W) 2,522 4.3 -12.1°
Reaches altitude 10° 09:07:09 10° 288° (WNW) 2,200 4.0 -12.0°
Maximum altitude 09:10:56 21° 336° (NNW) 1,596 3.8 -11.4°
Drops below altitude 10° 09:14:45 10° 25° (NNE) 2,209 5.4 -10.8°
Sets 09:17:43 0° 42° (NE) 3,133 7.0 -10.3°
